Regional Weather Roundup
Issued by NWS Albany, NY

Home | Current Version | Previous Version | Text Only | Print | Product List | Glossary On
Versions: 1 2 3 4 5 6 7 8 9 10 11 12 13 14 15 16 17 18 19 20 21 22 23 24 25 26 27 28 29 30 31 32 33 34 35 36 37 38 39 40 41 42 43 44 45 46 47 48 49 50
000
ASUS41 KALY 211110
RWRALY

NEW YORK STATE HOURLY WEATHER ROUNDUP
NATIONAL WEATHER SERVICE ALBANY NY
600 AM EST TUE NOV 21 2017

NOTE: "FAIR" INDICATES FEW OR NO CLOUDS BELOW 12,000 FEET WITH NO
SIGNIFICANT WEATHER AND/OR NO OBSTRUCTIONS TO VISIBILITY.

NYZ032-033-038>043-046>054-057>066-NYZ062>081-082-084-211200-
EAST


CITY           SKY/WX    TMP DP  RH WIND       PRES   REMARKS
ALBANY         PTCLDY    35  23  61 VRB3      30.03S
GLENS FALLS    CLEAR     22  20  92 CALM      30.02R
POUGHKEEPSIE   CLEAR     27  22  81 CALM      30.09R
MONTGOMERY     CLEAR     26  22  84 CALM      30.08R
WHITE PLAINS   CLEAR     38  26  62 CALM      30.11R
ISLIP          PTCLDY    41  31  67 SW7       30.13S
NEW YORK CITY  PTCLDY    44  30  57 SW15      30.12R
CENTRAL PARK   CLEAR     43  29  57 VRB3      30.15R
$$

NYZ005>009-017-018-044>046-055-056-211200-
CENTRAL


CITY           SKY/WX    TMP DP  RH WIND       PRES   REMARKS
FULTON         CLEAR     37  24  59 S13G18    29.86F WCI  29
SYRACUSE       CLEAR     39  21  48 S7        29.89S WCI  34
ROME           CLEAR     33  24  69 E12       29.95F WCI  24
ELMIRA         CLEAR     27  23  85 E5        29.94F WCI  22
BINGHAMTON     CLOUDY    34  20  56 S8        29.94F WCI  27
$$

NYZ026>034-041>043-087-211200-
NORTH


CITY           SKY/WX    TMP DP  RH WIND       PRES   REMARKS
WATERTOWN      CLEAR     39  25  57 S12G20    29.81F WCI  32
FORT DRUM      NOT AVBL
OGDENSBURG     FAIR      36  29  75 S12       29.79F WCI  28
MASSENA        CLOUDY    19  17  92 CALM      29.82F
SARANAC LAKE   CLEAR     27  23  85 MISG      29.83F
PLATTSBURGH    CLEAR     24  22  91 CALM      29.92R
$$

NYZ001>004-010>016-019>021-085-211200-
WEST


CITY           SKY/WX    TMP DP  RH WIND       PRES   REMARKS
NIAGARA FALLS  CLEAR     44  25  47 S16G22    29.78F
BUFFALO        CLEAR     41  22  46 S20G26    29.79F
DUNKIRK        CLEAR     41  22  46 S22G36    29.82F
WELLSVILLE     CLEAR     40  19  43 S9        29.89F WCI  34
ROCHESTER      CLEAR     41  22  46 SW20G26   29.82F
PENN YAN       CLEAR     40  22  48 S16G25    29.87F WCI  31
$$

             KEY
       WCI = WIND CHILL INDEX
       VSB = VISIBILITY
       HX  = HEAT INDEX
$$



USA.gov is the U.S. government's official web portal to all federal, state and local government web resources and services.